Location: Feudal
(51.8839°N, 107.6105°W)
Time: 18:00:44
(UTC+00:00)

Tiangong - Visible Passes

Search period start: 24 January 2022 00:00
Search period end: 03 February 2022 00:00
Orbit: 383 x 386 km, 41.5° (Epoch: 23 January)

Date Brightness Start Highest point End Pass type
(mag) Time Alt. Az. Time Alt. Az. Time Alt. Az.
31 Jan 3.9 02:19:05 10° SSW 02:19:42 12° SSW 02:19:42 12° SSW visible
01 Feb 3.7 01:19:51 10° S 01:20:59 11° S 01:22:08 10° SSE visible
02 Feb 3.6 01:55:48 10° SSW 01:57:22 13° S 01:57:57 13° S visible
